Time,TemperatureF,DewpointF,PressureIn,WindDirection,WindDirectionDegrees,WindSpeedMPH,WindSpeedGustMPH,Humidity,HourlyPrecipIn,Conditions,Clouds,dailyrainin,SoftwareType,DateUTC
2013-04-15 00:00:00,40.0,27.6,30.18,WNW,288,2.0,2.0,61,0.00,,,0.00,Wunderground v.1.15,2013-04-15 04:00:00,
2013-04-15 00:01:00,40.0,27.6,30.18,WNW,288,1.0,3.0,61,0.00,,,0.00,Wunderground v.1.15,2013-04-15 04:01:00,
2013-04-15 00:02:00,40.0,27.6,30.18,WNW,283,5.0,5.0,61,0.00,,,0.00,Wunderground v.1.15,2013-04-15 04:02:00,
2013-04-15 00:07:00,40.0,28.0,30.18,WNW,284,2.0,5.0,62,0.00,,,0.00,Wunderground v.1.15,2013-04-15 04:07:00,
2013-04-15 00:13:00,39.8,27.8,30.19,WNW,291,2.0,3.0,62,0.00,,,0.00,Wunderground v.1.15,2013-04-15 04:13:00,
2013-04-15 00:18:00,39.8,27.8,30.18,NW,321,2.0,4.0,62,0.00,,,0.00,Wunderground v.1.15,2013-04-15 04:18:00,
2013-04-15 00:23:00,39.7,27.7,30.18,WNW,303,3.0,4.0,62,0.00,,,0.00,Wunderground v.1.15,2013-04-15 04:23:00,
2013-04-15 00:29:00,39.6,27.6,30.18,NW,306,1.0,4.0,62,0.00,,,0.00,Wunderground v.1.15,2013-04-15 04:29:00,
2013-04-15 00:34:00,39.5,27.9,30.18,NW,307,1.0,4.0,63,0.00,,,0.00,Wunderground v.1.15,2013-04-15 04:34:00,
2013-04-15 00:40:00,39.4,27.8,30.18,NW,307,2.0,2.0,63,0.00,,,0.00,Wunderground v.1.15,2013-04-15 04:40:00,
2013-04-15 00:46:00,39.3,27.7,30.18,NW,307,2.0,3.0,63,0.00,,,0.00,Wunderground v.1.15,2013-04-15 04:46:00,
2013-04-15 00:52:00,39.3,27.7,30.18,NW,313,1.0,3.0,63,0.00,,,0.00,Wunderground v.1.15,2013-04-15 04:52:00,
2013-04-15 00:57:00,39.1,27.6,30.18,NNW,333,3.0,4.0,63,0.00,,,0.00,Wunderground v.1.15,2013-04-15 04:57:00,
2013-04-15 01:02:00,39.0,27.8,30.19,NW,325,3.0,4.0,64,0.00,,,0.00,Wunderground v.1.15,2013-04-15 05:02:00,
2013-04-15 01:08:00,38.8,27.7,30.19,NW,318,3.0,7.0,64,0.00,,,0.00,Wunderground v.1.15,2013-04-15 05:08:00,
2013-04-15 01:13:00,38.7,27.6,30.19,NW,319,4.0,4.0,64,0.00,,,0.00,Wunderground v.1.15,2013-04-15 05:13:00,
2013-04-15 01:19:00,38.6,27.8,30.19,WNW,299,3.0,5.0,65,0.00,,,0.00,Wunderground v.1.15,2013-04-15 05:19:00,
2013-04-15 01:24:00,38.5,27.7,30.19,WNW,299,2.0,3.0,65,0.00,,,0.00,Wunderground v.1.15,2013-04-15 05:24:00,
2013-04-15 01:29:00,38.4,27.7,30.19,WNW,300,2.0,3.0,65,0.00,,,0.00,Wunderground v.1.15,2013-04-15 05:29:00,
2013-04-15 01:35:00,38.4,27.7,30.19,WNW,300,0.0,2.0,65,0.00,,,0.00,Wunderground v.1.15,2013-04-15 05:35:00,
2013-04-15 01:40:00,38.4,27.7,30.19,WNW,300,1.0,2.0,65,0.00,,,0.00,Wunderground v.1.15,2013-04-15 05:40:00,
2013-04-15 01:46:00,38.3,27.6,30.19,WNW,298,3.0,4.0,65,0.00,,,0.00,Wunderground v.1.15,2013-04-15 05:46:00,
2013-04-15 01:52:00,38.3,27.6,30.19,WNW,298,2.0,3.0,65,0.00,,,0.00,Wunderground v.1.15,2013-04-15 05:52:00,
2013-04-15 01:57:00,38.2,27.5,30.19,WNW,296,2.0,3.0,65,0.00,,,0.00,Wunderground v.1.15,2013-04-15 05:57:00,
2013-04-15 02:02:00,38.2,27.5,30.19,WNW,300,0.0,5.0,65,0.00,,,0.00,Wunderground v.1.15,2013-04-15 06:02:00,
2013-04-15 02:07:00,38.0,27.3,30.19,WNW,297,2.0,5.0,65,0.00,,,0.00,Wunderground v.1.15,2013-04-15 06:07:00,
2013-04-15 02:12:00,37.9,27.5,30.19,WNW,300,4.0,5.0,66,0.00,,,0.00,Wunderground v.1.15,2013-04-15 06:12:00,
2013-04-15 02:17:00,37.8,27.5,30.19,NW,304,5.0,7.0,66,0.00,,,0.00,Wunderground v.1.15,2013-04-15 06:17:00,
2013-04-15 02:22:00,37.8,27.5,30.20,NW,315,5.0,5.0,66,0.00,,,0.00,Wunderground v.1.15,2013-04-15 06:22:00,
2013-04-15 02:27:00,37.7,27.4,30.19,WNW,300,3.0,5.0,66,0.00,,,0.00,Wunderground v.1.15,2013-04-15 06:27:00,
2013-04-15 02:32:00,37.6,27.6,30.20,NW,313,3.0,7.0,67,0.00,,,0.00,Wunderground v.1.15,2013-04-15 06:32:00,
2013-04-15 02:37:00,37.5,27.5,30.20,NW,317,4.0,7.0,67,0.00,,,0.00,Wunderground v.1.15,2013-04-15 06:37:00,
2013-04-15 02:42:00,37.5,27.5,30.20,NNW,340,5.0,5.0,67,0.00,,,0.00,Wunderground v.1.15,2013-04-15 06:42:00,
2013-04-15 02:47:00,37.4,27.4,30.20,NW,314,3.0,5.0,67,0.00,,,0.00,Wunderground v.1.15,2013-04-15 06:47:00,
2013-04-15 02:52:00,37.4,27.4,30.20,NW,310,0.0,6.0,67,0.00,,,0.00,Wunderground v.1.15,2013-04-15 06:52:00,
2013-04-15 02:57:00,37.3,27.3,30.20,NW,307,1.0,6.0,67,0.00,,,0.00,Wunderground v.1.15,2013-04-15 06:57:00,
2013-04-15 03:02:00,37.2,27.6,30.20,NW,317,2.0,4.0,68,0.00,,,0.00,Wunderground v.1.15,2013-04-15 07:02:00,
2013-04-15 03:41:00,36.9,27.3,30.21,WNW,300,1.0,3.0,68,0.00,,,0.00,Wunderground v.1.15,2013-04-15 07:41:00,
2013-04-15 03:42:00,36.8,27.2,30.21,WNW,300,3.0,3.0,68,0.00,,,0.00,Wunderground v.1.15,2013-04-15 07:42:00,
2013-04-15 03:47:00,36.8,27.2,30.21,WNW,300,3.0,4.0,68,0.00,,,0.00,Wunderground v.1.15,2013-04-15 07:47:00,
2013-04-15 03:48:00,36.7,27.1,30.21,WNW,302,4.0,4.0,68,0.00,,,0.00,Wunderground v.1.15,2013-04-15 07:48:00,
2013-04-15 03:50:00,36.7,27.1,30.22,WNW,302,3.0,3.0,68,0.00,,,0.00,Wunderground v.1.15,2013-04-15 07:50:00,
2013-04-15 03:53:00,36.6,27.0,30.22,NW,304,3.0,5.0,68,0.00,,,0.00,Wunderground v.1.15,2013-04-15 07:53:00,
2013-04-15 03:58:00,36.6,27.0,30.22,WNW,303,0.0,5.0,68,0.00,,,0.00,Wunderground v.1.15,2013-04-15 07:58:00,
2013-04-15 04:03:00,36.5,26.9,30.23,WNW,303,1.0,3.0,68,0.00,,,0.00,Wunderground v.1.15,2013-04-15 08:03:00,
2013-04-15 04:08:00,36.5,27.3,30.23,WNW,303,0.0,3.0,69,0.00,,,0.00,Wunderground v.1.15,2013-04-15 08:08:00,
2013-04-15 04:13:00,36.5,27.3,30.23,WNW,303,0.0,3.0,69,0.00,,,0.00,Wunderground v.1.15,2013-04-15 08:13:00,
2013-04-15 04:19:00,36.5,27.3,30.23,WNW,303,0.0,3.0,69,0.00,,,0.00,Wunderground v.1.15,2013-04-15 08:19:00,
2013-04-15 04:24:00,36.4,27.2,30.24,WNW,303,1.0,2.0,69,0.00,,,0.00,Wunderground v.1.15,2013-04-15 08:24:00,
2013-04-15 04:29:00,36.4,27.2,30.23,WNW,303,0.0,3.0,69,0.00,,,0.00,Wunderground v.1.15,2013-04-15 08:29:00,
2013-04-15 04:34:00,36.3,27.1,30.24,WNW,303,2.0,2.0,69,0.00,,,0.00,Wunderground v.1.15,2013-04-15 08:34:00,
2013-04-15 04:35:00,36.3,27.1,30.24,WNW,303,3.0,3.0,69,0.00,,,0.00,Wunderground v.1.15,2013-04-15 08:35:00,
2013-04-15 04:40:00,36.2,27.0,30.24,WNW,303,0.0,1.0,69,0.00,,,0.00,Wunderground v.1.15,2013-04-15 08:40:00,
2013-04-15 04:45:00,36.2,27.0,30.24,WNW,303,0.0,2.0,69,0.00,,,0.00,Wunderground v.1.15,2013-04-15 08:45:00,
2013-04-15 04:50:00,36.1,26.9,30.24,WNW,303,0.0,1.0,69,0.00,,,0.00,Wunderground v.1.15,2013-04-15 08:50:00,
2013-04-15 04:55:00,35.9,26.7,30.24,WNW,303,0.0,2.0,69,0.00,,,0.00,Wunderground v.1.15,2013-04-15 08:55:00,
2013-04-15 05:00:00,35.8,26.6,30.24,WNW,303,0.0,1.0,69,0.00,,,0.00,Wunderground v.1.15,2013-04-15 09:00:00,
2013-04-15 05:05:00,35.7,26.5,30.24,WNW,303,0.0,1.0,69,0.00,,,0.00,Wunderground v.1.15,2013-04-15 09:05:00,
2013-04-15 05:10:00,35.6,26.4,30.24,WNW,303,0.0,0.0,69,0.00,,,0.00,Wunderground v.1.15,2013-04-15 09:10:00,
2013-04-15 05:15:00,35.5,26.3,30.25,WNW,303,0.0,1.0,69,0.00,,,0.00,Wunderground v.1.15,2013-04-15 09:15:00,
2013-04-15 05:20:00,35.5,26.7,30.24,WNW,303,0.0,0.0,70,0.00,,,0.00,Wunderground v.1.15,2013-04-15 09:20:00,
2013-04-15 05:25:00,35.4,26.6,30.24,WNW,303,0.0,0.0,70,0.00,,,0.00,Wunderground v.1.15,2013-04-15 09:25:00,
2013-04-15 05:30:00,35.3,26.5,30.25,WNW,303,0.0,0.0,70,0.00,,,0.00,Wunderground v.1.15,2013-04-15 09:30:00,
2013-04-15 05:35:00,35.2,26.4,30.25,WNW,303,1.0,2.0,70,0.00,,,0.00,Wunderground v.1.15,2013-04-15 09:35:00,
2013-04-15 05:41:00,35.0,26.5,30.25,WNW,303,1.0,3.0,71,0.00,,,0.00,Wunderground v.1.15,2013-04-15 09:41:00,
2013-04-15 05:47:00,35.0,26.5,30.25,WNW,303,0.0,3.0,71,0.00,,,0.00,Wunderground v.1.15,2013-04-15 09:47:00,
2013-04-15 05:52:00,34.8,26.4,30.26,WNW,303,2.0,3.0,71,0.00,,,0.00,Wunderground v.1.15,2013-04-15 09:52:00,
2013-04-15 05:57:00,34.9,26.4,30.26,WNW,303,0.0,3.0,71,0.00,,,0.00,Wunderground v.1.15,2013-04-15 09:57:00,
2013-04-15 06:02:00,34.9,26.8,30.27,WNW,303,1.0,2.0,72,0.00,,,0.00,Wunderground v.1.15,2013-04-15 10:02:00,
2013-04-15 06:07:00,34.9,26.8,30.27,WNW,303,0.0,2.0,72,0.00,,,0.00,Wunderground v.1.15,2013-04-15 10:07:00,
2013-04-15 06:12:00,34.9,26.8,30.27,WNW,303,0.0,1.0,72,0.00,,,0.00,Wunderground v.1.15,2013-04-15 10:12:00,
2013-04-15 06:17:00,35.0,26.9,30.27,WNW,303,0.0,1.0,72,0.00,,,0.00,Wunderground v.1.15,2013-04-15 10:17:00,
2013-04-15 06:22:00,35.0,26.9,30.28,WNW,303,0.0,0.0,72,0.00,,,0.00,Wunderground v.1.15,2013-04-15 10:22:00,
2013-04-15 06:27:00,35.0,26.9,30.28,NW,304,0.0,0.0,72,0.00,,,0.00,Wunderground v.1.15,2013-04-15 10:27:00,
2013-04-15 06:32:00,35.0,27.2,30.29,WNW,303,2.0,3.0,73,0.00,,,0.00,Wunderground v.1.15,2013-04-15 10:32:00,
2013-04-15 06:37:00,35.0,27.2,30.29,WNW,303,0.0,3.0,73,0.00,,,0.00,Wunderground v.1.15,2013-04-15 10:37:00,
2013-04-15 06:42:00,35.2,27.4,30.29,NW,304,0.0,1.0,73,0.00,,,0.00,Wunderground v.1.15,2013-04-15 10:42:00,
2013-04-15 06:47:00,35.4,27.9,30.29,NW,304,0.0,1.0,74,0.00,,,0.00,Wunderground v.1.15,2013-04-15 10:47:00,
2013-04-15 06:52:00,35.6,28.1,30.30,NW,304,2.0,2.0,74,0.00,,,0.00,Wunderground v.1.15,2013-04-15 10:52:00,
2013-04-15 06:57:00,35.7,28.2,30.30,NW,304,0.0,2.0,74,0.00,,,0.00,Wunderground v.1.15,2013-04-15 10:57:00,
2013-04-15 07:02:00,36.0,28.8,30.31,WNW,303,0.0,3.0,75,0.00,,,0.00,Wunderground v.1.15,2013-04-15 11:02:00,
2013-04-15 07:07:00,36.2,28.7,30.31,WNW,303,2.0,3.0,74,0.00,,,0.00,Wunderground v.1.15,2013-04-15 11:07:00,
2013-04-15 07:12:00,36.5,29.3,30.31,NW,304,0.0,3.0,75,0.00,,,0.00,Wunderground v.1.15,2013-04-15 11:12:00,
2013-04-15 07:17:00,36.8,29.3,30.32,WNW,303,2.0,3.0,74,0.00,,,0.00,Wunderground v.1.15,2013-04-15 11:17:00,
2013-04-15 07:22:00,37.1,29.6,30.32,NW,304,1.0,3.0,74,0.00,,,0.00,Wunderground v.1.15,2013-04-15 11:22:00,
2013-04-15 07:27:00,37.4,29.9,30.32,NW,304,0.0,3.0,74,0.00,,,0.00,Wunderground v.1.15,2013-04-15 11:27:00,
2013-04-15 07:32:00,37.7,30.2,30.32,WNW,303,1.0,2.0,74,0.00,,,0.00,Wunderground v.1.15,2013-04-15 11:32:00,
2013-04-15 07:37:00,38.0,30.1,30.32,NW,304,1.0,2.0,73,0.00,,,0.00,Wunderground v.1.15,2013-04-15 11:37:00,
2013-04-15 07:42:00,38.4,30.2,30.32,WNW,303,1.0,3.0,72,0.00,,,0.00,Wunderground v.1.15,2013-04-15 11:42:00,
2013-04-15 07:48:00,38.8,30.5,30.32,NW,304,0.0,4.0,72,0.00,,,0.00,Wunderground v.1.15,2013-04-15 11:48:00,
2013-04-15 07:53:00,39.2,30.6,30.32,NW,315,1.0,4.0,71,0.00,,,0.00,Wunderground v.1.15,2013-04-15 11:53:00,
2013-04-15 07:58:00,39.6,30.6,30.32,NW,314,1.0,4.0,70,0.00,,,0.00,Wunderground v.1.15,2013-04-15 11:58:00,
2013-04-15 08:03:00,40.0,31.4,30.33,NW,315,3.0,3.0,71,0.00,,,0.00,Wunderground v.1.15,2013-04-15 12:03:00,
2013-04-15 08:08:00,40.3,30.9,30.33,NW,315,1.0,4.0,69,0.00,,,0.00,Wunderground v.1.15,2013-04-15 12:08:00,
2013-04-15 08:14:00,40.7,31.3,30.33,NW,314,0.0,3.0,69,0.00,,,0.00,Wunderground v.1.15,2013-04-15 12:14:00,
2013-04-15 08:19:00,41.1,31.7,30.33,NW,314,2.0,3.0,69,0.00,,,0.00,Wunderground v.1.15,2013-04-15 12:19:00,
2013-04-15 08:24:00,41.4,31.6,30.33,NW,315,1.0,3.0,68,0.00,,,0.00,Wunderground v.1.15,2013-04-15 12:24:00,
2013-04-15 08:29:00,41.9,32.5,30.33,NW,315,0.0,3.0,69,0.00,,,0.00,Wunderground v.1.15,2013-04-15 12:29:00,
2013-04-15 08:34:00,42.4,32.6,30.33,NW,315,0.0,3.0,68,0.00,,,0.00,Wunderground v.1.15,2013-04-15 12:34:00,
2013-04-15 08:40:00,42.9,32.3,30.33,NW,315,2.0,2.0,66,0.00,,,0.00,Wunderground v.1.15,2013-04-15 12:40:00,
2013-04-15 08:45:00,43.3,33.1,30.33,NW,315,1.0,2.0,67,0.00,,,0.00,Wunderground v.1.15,2013-04-15 12:45:00,
2013-04-15 08:50:00,43.8,32.8,30.33,North,360,0.0,1.0,65,0.00,,,0.00,Wunderground v.1.15,2013-04-15 12:50:00,
2013-04-15 08:55:00,44.2,32.8,30.33,NE,53,0.0,5.0,64,0.00,,,0.00,Wunderground v.1.15,2013-04-15 12:55:00,
2013-04-15 09:00:00,44.7,32.1,30.33,NNE,30,1.0,2.0,61,0.00,,,0.00,Wunderground v.1.15,2013-04-15 13:00:00,
2013-04-15 09:05:00,45.1,32.4,30.33,NE,44,0.0,3.0,61,0.00,,,0.00,Wunderground v.1.15,2013-04-15 13:05:00,
2013-04-15 09:10:00,45.7,32.6,30.33,East,96,1.0,2.0,60,0.00,,,0.00,Wunderground v.1.15,2013-04-15 13:10:00,
2013-04-15 09:15:00,46.3,32.7,30.33,East,96,0.0,3.0,59,0.00,,,0.00,Wunderground v.1.15,2013-04-15 13:15:00,
2013-04-15 09:21:00,46.9,32.9,30.33,ENE,67,4.0,5.0,58,0.00,,,0.00,Wunderground v.1.15,2013-04-15 13:21:00,
2013-04-15 09:26:00,47.2,32.3,30.33,NE,56,1.0,5.0,56,0.00,,,0.00,Wunderground v.1.15,2013-04-15 13:26:00,
2013-04-15 09:31:00,47.6,32.7,30.33,ENE,65,1.0,3.0,56,0.00,,,0.00,Wunderground v.1.15,2013-04-15 13:31:00,
2013-04-15 09:36:00,48.1,33.1,30.34,East,99,6.0,6.0,56,0.00,,,0.00,Wunderground v.1.15,2013-04-15 13:36:00,
2013-04-15 09:41:00,48.6,32.7,30.34,East,101,0.0,2.0,54,0.00,,,0.00,Wunderground v.1.15,2013-04-15 13:41:00,
2013-04-15 09:46:00,49.0,32.6,30.34,ESE,103,0.0,2.0,53,0.00,,,0.00,Wunderground v.1.15,2013-04-15 13:46:00,
2013-04-15 09:51:00,49.4,33.0,30.34,East,101,7.0,7.0,53,0.00,,,0.00,Wunderground v.1.15,2013-04-15 13:51:00,
2013-04-15 09:56:00,50.1,33.6,30.35,ESE,121,2.0,7.0,53,0.00,,,0.00,Wunderground v.1.15,2013-04-15 13:56:00,
2013-04-15 10:01:00,50.6,33.6,30.35,East,87,1.0,5.0,52,0.00,,,0.00,Wunderground v.1.15,2013-04-15 14:01:00,
2013-04-15 10:06:00,50.9,32.9,30.35,South,170,3.0,6.0,50,0.00,,,0.00,Wunderground v.1.15,2013-04-15 14:06:00,
2013-04-15 10:11:00,51.2,34.2,30.35,SE,138,4.0,5.0,52,0.00,,,0.00,Wunderground v.1.15,2013-04-15 14:11:00,
2013-04-15 10:16:00,51.8,34.2,30.35,SSE,150,0.0,8.0,51,0.00,,,0.00,Wunderground v.1.15,2013-04-15 14:16:00,
2013-04-15 10:21:00,52.2,34.6,30.35,SE,126,2.0,7.0,51,0.00,,,0.00,Wunderground v.1.15,2013-04-15 14:21:00,
2013-04-15 10:26:00,52.7,34.6,30.35,SSE,156,6.0,9.0,50,0.00,,,0.00,Wunderground v.1.15,2013-04-15 14:26:00,
2013-04-15 10:31:00,53.1,33.9,30.35,SE,142,9.0,9.0,48,0.00,,,0.00,Wunderground v.1.15,2013-04-15 14:31:00,
2013-04-15 10:36:00,53.6,34.9,30.35,SSE,163,5.0,9.0,49,0.00,,,0.00,Wunderground v.1.15,2013-04-15 14:36:00,
2013-04-15 10:42:00,54.0,34.7,30.35,ESE,120,3.0,10.0,48,0.00,,,0.00,Wunderground v.1.15,2013-04-15 14:42:00,
2013-04-15 10:47:00,54.4,35.1,30.35,SSE,148,7.0,10.0,48,0.00,,,0.00,Wunderground v.1.15,2013-04-15 14:47:00,
2013-04-15 10:52:00,54.9,35.6,30.35,ESE,109,5.0,9.0,48,0.00,,,0.00,Wunderground v.1.15,2013-04-15 14:52:00,
2013-04-15 10:57:00,55.2,35.3,30.36,ESE,103,4.0,11.0,47,0.00,,,0.00,Wunderground v.1.15,2013-04-15 14:57:00,
2013-04-15 11:02:00,55.2,34.2,30.35,ESE,107,9.0,12.0,45,0.00,,,0.00,Wunderground v.1.15,2013-04-15 15:02:00,
2013-04-15 11:07:00,55.0,34.0,30.35,ESE,112,2.0,12.0,45,0.00,,,0.00,Wunderground v.1.15,2013-04-15 15:07:00,
2013-04-15 11:12:00,54.8,33.8,30.35,ESE,113,10.0,11.0,45,0.00,,,0.00,Wunderground v.1.15,2013-04-15 15:12:00,
2013-04-15 11:17:00,54.5,34.1,30.35,SE,131,10.0,11.0,46,0.00,,,0.00,Wunderground v.1.15,2013-04-15 15:17:00,
2013-04-15 11:22:00,54.5,34.1,30.34,SE,140,7.0,10.0,46,0.00,,,0.00,Wunderground v.1.15,2013-04-15 15:22:00,
2013-04-15 11:27:00,54.5,33.6,30.34,SSE,161,5.0,10.0,45,0.00,,,0.00,Wunderground v.1.15,2013-04-15 15:27:00,
2013-04-15 11:33:00,54.4,34.0,30.34,SSW,197,6.0,8.0,46,0.00,,,0.00,Wunderground v.1.15,2013-04-15 15:33:00,
2013-04-15 11:38:00,54.6,34.8,30.34,SE,142,6.0,8.0,47,0.00,,,0.00,Wunderground v.1.15,2013-04-15 15:38:00,
2013-04-15 11:43:00,54.9,33.4,30.34,South,179,8.0,8.0,44,0.00,,,0.00,Wunderground v.1.15,2013-04-15 15:43:00,
2013-04-15 11:48:00,55.3,35.4,30.34,SE,138,7.0,10.0,47,0.00,,,0.00,Wunderground v.1.15,2013-04-15 15:48:00,
2013-04-15 11:53:00,55.6,34.6,30.34,SE,138,6.0,9.0,45,0.00,,,0.00,Wunderground v.1.15,2013-04-15 15:53:00,
2013-04-15 11:58:00,55.9,34.3,30.34,SE,127,2.0,10.0,44,0.00,,,0.00,Wunderground v.1.15,2013-04-15 15:58:00,
2013-04-15 12:03:00,56.2,34.6,30.34,SSE,161,4.0,10.0,44,0.00,,,0.00,Wunderground v.1.15,2013-04-15 16:03:00,
2013-04-15 12:08:00,56.1,34.5,30.34,SE,128,8.0,10.0,44,0.00,,,0.00,Wunderground v.1.15,2013-04-15 16:08:00,
2013-04-15 12:14:00,56.4,34.7,30.34,SE,135,8.0,10.0,44,0.00,,,0.00,Wunderground v.1.15,2013-04-15 16:14:00,
2013-04-15 12:19:00,56.8,35.1,30.33,SE,134,7.0,11.0,44,0.00,,,0.00,Wunderground v.1.15,2013-04-15 16:19:00,
2013-04-15 12:24:00,57.1,34.8,30.33,SE,132,5.0,10.0,43,0.00,,,0.00,Wunderground v.1.15,2013-04-15 16:24:00,
2013-04-15 12:29:00,57.2,34.3,30.33,ESE,111,3.0,10.0,42,0.00,,,0.00,Wunderground v.1.15,2013-04-15 16:29:00,
2013-04-15 12:34:00,57.3,35.6,30.33,East,98,1.0,8.0,44,0.00,,,0.00,Wunderground v.1.15,2013-04-15 16:34:00,
2013-04-15 12:39:00,57.2,34.9,30.33,SE,126,4.0,8.0,43,0.00,,,0.00,Wunderground v.1.15,2013-04-15 16:39:00,
2013-04-15 12:44:00,57.2,34.9,30.33,East,98,7.0,7.0,43,0.00,,,0.00,Wunderground v.1.15,2013-04-15 16:44:00,
2013-04-15 12:49:00,57.2,35.5,30.33,East,94,7.0,14.0,44,0.00,,,0.00,Wunderground v.1.15,2013-04-15 16:49:00,
2013-04-15 12:54:00,57.4,35.1,30.32,ESE,111,11.0,14.0,43,0.00,,,0.00,Wunderground v.1.15,2013-04-15 16:54:00,
2013-04-15 12:59:00,57.8,36.0,30.32,ESE,123,10.0,14.0,44,0.00,,,0.00,Wunderground v.1.15,2013-04-15 16:59:00,
2013-04-15 13:04:00,58.1,36.3,30.32,SE,129,7.0,11.0,44,0.00,,,0.00,Wunderground v.1.15,2013-04-15 17:04:00,
2013-04-15 13:09:00,58.2,36.4,30.32,SE,127,11.0,11.0,44,0.00,,,0.00,Wunderground v.1.15,2013-04-15 17:09:00,
2013-04-15 13:14:00,58.4,37.1,30.32,East,101,10.0,12.0,45,0.00,,,0.00,Wunderground v.1.15,2013-04-15 17:14:00,
2013-04-15 13:19:00,58.5,37.2,30.32,East,85,9.0,14.0,45,0.00,,,0.00,Wunderground v.1.15,2013-04-15 17:19:00,
2013-04-15 13:21:00,58.6,36.7,30.32,SE,138,10.0,11.0,44,0.00,,,0.00,Wunderground v.1.15,2013-04-15 17:21:00,
2013-04-15 13:22:00,58.6,36.7,30.32,SE,143,11.0,11.0,44,0.00,,,0.00,Wunderground v.1.15,2013-04-15 17:22:00,
2013-04-15 13:25:00,58.7,37.4,30.32,East,92,9.0,13.0,45,0.00,,,0.00,Wunderground v.1.15,2013-04-15 17:25:00,
2013-04-15 13:30:00,58.7,36.8,30.32,ESE,107,8.0,9.0,44,0.00,,,0.00,Wunderground v.1.15,2013-04-15 17:30:00,
2013-04-15 13:35:00,58.8,37.5,30.32,SE,129,8.0,13.0,45,0.00,,,0.00,Wunderground v.1.15,2013-04-15 17:35:00,
2013-04-15 13:40:00,59.0,37.7,30.33,East,101,9.0,9.0,45,0.00,,,0.00,Wunderground v.1.15,2013-04-15 17:40:00,
2013-04-15 13:45:00,59.0,37.7,30.32,ESE,119,11.0,15.0,45,0.00,,,0.00,Wunderground v.1.15,2013-04-15 17:45:00,
2013-04-15 13:50:00,59.2,37.3,30.32,SE,136,13.0,13.0,44,0.00,,,0.00,Wunderground v.1.15,2013-04-15 17:50:00,
2013-04-15 13:55:00,59.2,36.7,30.32,SSE,161,8.0,14.0,43,0.00,,,0.00,Wunderground v.1.15,2013-04-15 17:55:00,
2013-04-15 14:00:00,59.1,37.2,30.32,ESE,122,13.0,13.0,44,0.00,,,0.00,Wunderground v.1.15,2013-04-15 18:00:00,
2013-04-15 14:05:00,59.1,36.6,30.32,SE,142,16.0,16.0,43,0.00,,,0.00,Wunderground v.1.15,2013-04-15 18:05:00,
2013-04-15 14:10:00,59.0,37.7,30.32,ESE,112,14.0,14.0,45,0.00,,,0.00,Wunderground v.1.15,2013-04-15 18:10:00,
2013-04-15 14:15:00,58.6,36.7,30.32,SSE,159,7.0,17.0,44,0.00,,,0.00,Wunderground v.1.15,2013-04-15 18:15:00,
2013-04-15 14:20:00,58.1,36.9,30.32,ESE,107,11.0,11.0,45,0.00,,,0.00,Wunderground v.1.15,2013-04-15 18:20:00,
2013-04-15 14:26:00,57.8,35.4,30.32,ESE,103,9.0,16.0,43,0.00,,,0.00,Wunderground v.1.15,2013-04-15 18:26:00,
2013-04-15 14:29:00,57.5,35.7,30.32,East,99,10.0,16.0,44,0.00,,,0.00,Wunderground v.1.15,2013-04-15 18:29:00,
2013-04-15 14:34:00,57.1,35.4,30.32,ESE,122,11.0,16.0,44,0.00,,,0.00,Wunderground v.1.15,2013-04-15 18:34:00,
2013-04-15 14:39:00,56.5,35.4,30.32,ESE,110,10.0,18.0,45,0.00,,,0.00,Wunderground v.1.15,2013-04-15 18:39:00,
2013-04-15 14:44:00,56.0,35.5,30.32,ESE,109,11.0,15.0,46,0.00,,,0.00,Wunderground v.1.15,2013-04-15 18:44:00,
2013-04-15 14:49:00,55.6,35.7,30.32,ESE,113,9.0,15.0,47,0.00,,,0.00,Wunderground v.1.15,2013-04-15 18:49:00,
2013-04-15 14:54:00,55.5,36.1,30.32,East,91,13.0,16.0,48,0.00,,,0.00,Wunderground v.1.15,2013-04-15 18:54:00,
2013-04-15 14:59:00,55.6,36.2,30.31,East,95,14.0,16.0,48,0.00,,,0.00,Wunderground v.1.15,2013-04-15 18:59:00,
2013-04-15 15:04:00,55.7,36.3,30.31,ESE,112,11.0,15.0,48,0.00,,,0.00,Wunderground v.1.15,2013-04-15 19:04:00,
2013-04-15 15:09:00,55.7,36.3,30.31,ESE,106,12.0,17.0,48,0.00,,,0.00,Wunderground v.1.15,2013-04-15 19:09:00,
2013-04-15 15:14:00,55.4,36.0,30.31,ESE,121,8.0,15.0,48,0.00,,,0.00,Wunderground v.1.15,2013-04-15 19:14:00,
2013-04-15 15:19:00,55.2,35.8,30.31,SE,132,7.0,15.0,48,0.00,,,0.00,Wunderground v.1.15,2013-04-15 19:19:00,
2013-04-15 15:24:00,55.0,36.2,30.31,ESE,109,15.0,17.0,49,0.00,,,0.00,Wunderground v.1.15,2013-04-15 19:24:00,
2013-04-15 15:29:00,54.8,36.0,30.31,East,83,10.0,18.0,49,0.00,,,0.00,Wunderground v.1.15,2013-04-15 19:29:00,
2013-04-15 15:35:00,54.6,35.8,30.31,ESE,117,8.0,16.0,49,0.00,,,0.00,Wunderground v.1.15,2013-04-15 19:35:00,
2013-04-15 15:40:00,54.6,36.3,30.31,SE,125,11.0,12.0,50,0.00,,,0.00,Wunderground v.1.15,2013-04-15 19:40:00,
2013-04-15 15:45:00,54.4,36.1,30.31,ESE,106,10.0,15.0,50,0.00,,,0.00,Wunderground v.1.15,2013-04-15 19:45:00,
2013-04-15 15:51:00,54.4,36.1,30.31,East,90,14.0,14.0,50,0.00,,,0.00,Wunderground v.1.15,2013-04-15 19:51:00,
2013-04-15 15:57:00,54.5,36.2,30.31,East,81,9.0,18.0,50,0.00,,,0.00,Wunderground v.1.15,2013-04-15 19:57:00,
2013-04-15 15:58:00,54.5,36.2,30.31,ESE,103,10.0,18.0,50,0.00,,,0.00,Wunderground v.1.15,2013-04-15 19:58:00,
2013-04-15 16:02:00,54.5,35.7,30.30,SE,140,14.0,15.0,49,0.00,,,0.00,Wunderground v.1.15,2013-04-15 20:02:00,
2013-04-15 16:07:00,54.3,35.5,30.30,East,98,13.0,18.0,49,0.00,,,0.00,Wunderground v.1.15,2013-04-15 20:07:00,
2013-04-15 16:12:00,54.2,35.9,30.30,ESE,118,9.0,18.0,50,0.00,,,0.00,Wunderground v.1.15,2013-04-15 20:12:00,
2013-04-15 16:17:00,54.1,35.3,30.30,SE,124,11.0,18.0,49,0.00,,,0.00,Wunderground v.1.15,2013-04-15 20:17:00,
2013-04-15 16:22:00,54.1,34.8,30.30,ESE,103,16.0,19.0,48,0.00,,,0.00,Wunderground v.1.15,2013-04-15 20:22:00,
2013-04-15 16:27:00,54.1,35.3,30.30,SE,126,12.0,19.0,49,0.00,,,0.00,Wunderground v.1.15,2013-04-15 20:27:00,
2013-04-15 16:32:00,53.9,35.7,30.30,ESE,113,16.0,17.0,50,0.00,,,0.00,Wunderground v.1.15,2013-04-15 20:32:00,
2013-04-15 16:37:00,53.8,35.1,30.30,ESE,123,12.0,18.0,49,0.00,,,0.00,Wunderground v.1.15,2013-04-15 20:37:00,
2013-04-15 16:42:00,53.8,35.6,30.29,East,99,15.0,16.0,50,0.00,,,0.00,Wunderground v.1.15,2013-04-15 20:42:00,
2013-04-15 16:47:00,53.9,35.2,30.29,ESE,116,9.0,16.0,49,0.00,,,0.00,Wunderground v.1.15,2013-04-15 20:47:00,
2013-04-15 16:52:00,53.8,35.6,30.29,East,85,11.0,13.0,50,0.00,,,0.00,Wunderground v.1.15,2013-04-15 20:52:00,
2013-04-15 16:57:00,53.7,35.5,30.29,East,96,17.0,17.0,50,0.00,,,0.00,Wunderground v.1.15,2013-04-15 20:57:00,
2013-04-15 17:00:00,53.8,35.6,30.29,ESE,113,11.0,-999.0,50,0.00,,,0.00,Wunderground v.1.15,2013-04-15 21:00:00,
2013-04-15 17:05:00,53.8,35.6,30.29,ESE,113,11.0,-999.0,50,0.00,,,0.00,Wunderground v.1.15,2013-04-15 21:05:00,
2013-04-15 17:10:00,53.8,35.6,30.29,ESE,113,11.0,-999.0,50,0.00,,,0.00,Wunderground v.1.15,2013-04-15 21:10:00,
2013-04-15 17:15:00,53.5,38.2,30.30,ESE,113,12.0,-999.0,56,0.00,,,0.00,Wunderground v.1.15,2013-04-15 21:15:00,
2013-04-15 17:20:00,53.5,38.2,30.30,ESE,113,12.0,-999.0,56,0.00,,,0.00,Wunderground v.1.15,2013-04-15 21:20:00,
2013-04-15 17:25:00,53.5,38.2,30.30,ESE,113,12.0,-999.0,56,0.00,,,0.00,Wunderground v.1.15,2013-04-15 21:25:00,
2013-04-15 17:30:00,53.5,38.2,30.30,ESE,113,12.0,-999.0,56,0.00,,,0.00,Wunderground v.1.15,2013-04-15 21:30:00,
2013-04-15 17:35:00,53.5,38.2,30.30,ESE,113,12.0,-999.0,56,0.00,,,0.00,Wunderground v.1.15,2013-04-15 21:35:00,
2013-04-15 17:40:00,53.5,38.2,30.30,ESE,113,12.0,-999.0,56,0.00,,,0.00,Wunderground v.1.15,2013-04-15 21:40:00,
2013-04-15 17:45:00,52.2,37.9,30.30,ESE,113,9.0,-999.0,58,0.00,,,0.00,Wunderground v.1.15,2013-04-15 21:45:00,
2013-04-15 17:50:00,52.2,37.9,30.30,ESE,113,9.0,-999.0,58,0.00,,,0.00,Wunderground v.1.15,2013-04-15 21:50:00,
2013-04-15 17:55:00,52.2,37.9,30.30,ESE,113,9.0,-999.0,58,0.00,,,0.00,Wunderground v.1.15,2013-04-15 21:55:00,
2013-04-15 18:00:00,52.2,37.9,30.30,ESE,113,9.0,-999.0,58,0.00,,,0.00,Wunderground v.1.15,2013-04-15 22:00:00,
2013-04-15 18:05:00,52.2,37.9,30.30,ESE,113,9.0,-999.0,58,0.00,,,0.00,Wunderground v.1.15,2013-04-15 22:05:00,
2013-04-15 18:10:00,52.2,37.9,30.30,ESE,113,9.0,-999.0,58,0.00,,,0.00,Wunderground v.1.15,2013-04-15 22:10:00,
2013-04-15 18:15:00,51.1,38.5,30.31,ESE,113,9.0,-999.0,62,0.00,,,0.00,Wunderground v.1.15,2013-04-15 22:15:00,
2013-04-15 18:20:00,51.1,38.5,30.31,ESE,113,9.0,-999.0,62,0.00,,,0.00,Wunderground v.1.15,2013-04-15 22:20:00,
2013-04-15 18:25:00,51.1,38.5,30.31,ESE,113,9.0,-999.0,62,0.00,,,0.00,Wunderground v.1.15,2013-04-15 22:25:00,
2013-04-15 18:30:00,51.1,38.5,30.31,ESE,113,9.0,-999.0,62,0.00,,,0.00,Wunderground v.1.15,2013-04-15 22:30:00,
2013-04-15 18:35:00,51.1,38.5,30.31,ESE,113,9.0,-999.0,62,0.00,,,0.00,Wunderground v.1.15,2013-04-15 22:35:00,
2013-04-15 18:40:00,51.1,38.5,30.31,ESE,113,9.0,-999.0,62,0.00,,,0.00,Wunderground v.1.15,2013-04-15 22:40:00,
2013-04-15 18:45:00,49.9,38.2,30.31,ESE,113,8.0,-999.0,64,0.00,,,0.00,Wunderground v.1.15,2013-04-15 22:45:00,
2013-04-15 18:50:00,49.9,38.2,30.31,ESE,113,8.0,-999.0,64,0.00,,,0.00,Wunderground v.1.15,2013-04-15 22:50:00,
2013-04-15 18:55:00,49.9,38.2,30.31,ESE,113,8.0,-999.0,64,0.00,,,0.00,Wunderground v.1.15,2013-04-15 22:55:00,
2013-04-15 19:00:00,49.9,38.2,30.31,ESE,113,8.0,-999.0,64,0.00,,,0.00,Wunderground v.1.15,2013-04-15 23:00:00,
2013-04-15 19:05:00,49.9,38.2,30.31,ESE,113,8.0,-999.0,64,0.00,,,0.00,Wunderground v.1.15,2013-04-15 23:05:00,
2013-04-15 19:10:00,49.9,38.2,30.31,ESE,113,8.0,-999.0,64,0.00,,,0.00,Wunderground v.1.15,2013-04-15 23:10:00,
2013-04-15 19:15:00,48.8,37.9,30.32,ESE,113,6.0,-999.0,66,0.00,,,0.00,Wunderground v.1.15,2013-04-15 23:15:00,
2013-04-15 19:20:00,48.8,37.9,30.32,ESE,113,6.0,-999.0,66,0.00,,,0.00,Wunderground v.1.15,2013-04-15 23:20:00,
2013-04-15 19:25:00,48.8,37.9,30.32,ESE,113,6.0,-999.0,66,0.00,,,0.00,Wunderground v.1.15,2013-04-15 23:25:00,
2013-04-15 19:30:00,48.8,37.9,30.32,ESE,113,6.0,-999.0,66,0.00,,,0.00,Wunderground v.1.15,2013-04-15 23:30:00,
2013-04-15 19:35:00,48.8,37.9,30.32,ESE,113,6.0,-999.0,66,0.00,,,0.00,Wunderground v.1.15,2013-04-15 23:35:00,
2013-04-15 19:40:00,48.8,37.9,30.32,ESE,113,6.0,-999.0,66,0.00,,,0.00,Wunderground v.1.15,2013-04-15 23:40:00,
2013-04-15 19:45:00,48.4,37.9,30.34,ESE,113,3.0,-999.0,67,0.00,,,0.00,Wunderground v.1.15,2013-04-15 23:45:00,
2013-04-15 19:50:00,48.4,37.9,30.34,ESE,113,3.0,-999.0,67,0.00,,,0.00,Wunderground v.1.15,2013-04-15 23:50:00,
2013-04-15 19:55:00,48.4,37.9,30.34,ESE,113,3.0,-999.0,67,0.00,,,0.00,Wunderground v.1.15,2013-04-15 23:55:00,
2013-04-15 20:00:00,48.4,37.9,30.34,ESE,113,3.0,-999.0,67,0.00,,,0.00,Wunderground v.1.15,2013-04-16 00:00:00,
2013-04-15 20:05:00,48.4,37.9,30.34,ESE,113,3.0,-999.0,67,0.00,,,0.00,Wunderground v.1.15,2013-04-16 00:05:00,
2013-04-15 20:10:00,48.4,37.9,30.34,ESE,113,3.0,-999.0,67,0.00,,,0.00,Wunderground v.1.15,2013-04-16 00:10:00,
2013-04-15 20:15:00,48.4,37.6,30.33,SE,135,3.0,-999.0,66,0.00,,,0.00,Wunderground v.1.15,2013-04-16 00:15:00,
2013-04-15 20:20:00,48.4,37.6,30.33,SE,135,3.0,-999.0,66,0.00,,,0.00,Wunderground v.1.15,2013-04-16 00:20:00,
2013-04-15 20:25:00,48.4,37.6,30.33,SE,135,3.0,-999.0,66,0.00,,,0.00,Wunderground v.1.15,2013-04-16 00:25:00,
2013-04-15 20:30:00,48.4,37.6,30.33,SE,135,3.0,-999.0,66,0.00,,,0.00,Wunderground v.1.15,2013-04-16 00:30:00,
2013-04-15 20:35:00,48.4,37.6,30.33,SE,135,3.0,-999.0,66,0.00,,,0.00,Wunderground v.1.15,2013-04-16 00:35:00,
2013-04-15 20:40:00,48.4,37.6,30.33,SE,135,3.0,-999.0,66,0.00,,,0.00,Wunderground v.1.15,2013-04-16 00:40:00,
2013-04-15 20:45:00,48.8,35.1,30.34,SSE,158,6.0,-999.0,59,0.00,,,0.00,Wunderground v.1.15,2013-04-16 00:45:00,
2013-04-15 20:50:00,48.8,35.1,30.34,SSE,158,6.0,-999.0,59,0.00,,,0.00,Wunderground v.1.15,2013-04-16 00:50:00,
2013-04-15 20:55:00,48.8,35.1,30.34,SSE,158,6.0,-999.0,59,0.00,,,0.00,Wunderground v.1.15,2013-04-16 00:55:00,
2013-04-15 21:00:00,48.8,35.1,30.34,SSE,158,6.0,-999.0,59,0.00,,,0.00,Wunderground v.1.15,2013-04-16 01:00:00,
2013-04-15 21:05:00,48.8,35.1,30.34,SSE,158,6.0,-999.0,59,0.00,,,0.00,Wunderground v.1.15,2013-04-16 01:05:00,
2013-04-15 21:10:00,48.8,35.1,30.34,SSE,158,6.0,-999.0,59,0.00,,,0.00,Wunderground v.1.15,2013-04-16 01:10:00,
2013-04-15 21:15:00,49.0,35.7,30.34,South,180,5.0,-999.0,60,0.00,,,0.00,Wunderground v.1.15,2013-04-16 01:15:00,
2013-04-15 21:20:00,49.0,35.7,30.34,South,180,5.0,-999.0,60,0.00,,,0.00,Wunderground v.1.15,2013-04-16 01:20:00,
2013-04-15 21:25:00,49.0,35.7,30.34,South,180,5.0,-999.0,60,0.00,,,0.00,Wunderground v.1.15,2013-04-16 01:25:00,
2013-04-15 21:30:00,49.0,35.7,30.34,South,180,5.0,-999.0,60,0.00,,,0.00,Wunderground v.1.15,2013-04-16 01:30:00,
2013-04-15 21:35:00,49.0,35.7,30.34,South,180,5.0,-999.0,60,0.00,,,0.00,Wunderground v.1.15,2013-04-16 01:35:00,
2013-04-15 21:40:00,49.0,35.7,30.34,South,180,5.0,-999.0,60,0.00,,,0.00,Wunderground v.1.15,2013-04-16 01:40:00,
2013-04-15 21:45:00,48.4,35.6,30.35,South,180,5.0,-999.0,61,0.00,,,0.00,Wunderground v.1.15,2013-04-16 01:45:00,
2013-04-15 21:50:00,48.4,35.6,30.35,South,180,5.0,-999.0,61,0.00,,,0.00,Wunderground v.1.15,2013-04-16 01:50:00,
2013-04-15 21:55:00,48.4,35.6,30.35,South,180,5.0,-999.0,61,0.00,,,0.00,Wunderground v.1.15,2013-04-16 01:55:00,
2013-04-15 22:00:00,48.4,35.6,30.35,South,180,5.0,-999.0,61,0.00,,,0.00,Wunderground v.1.15,2013-04-16 02:00:00,
2013-04-15 22:05:00,48.4,35.6,30.35,South,180,5.0,-999.0,61,0.00,,,0.00,Wunderground v.1.15,2013-04-16 02:05:00,
2013-04-15 22:10:00,48.4,35.6,30.35,South,180,5.0,-999.0,61,0.00,,,0.00,Wunderground v.1.15,2013-04-16 02:10:00,
2013-04-15 22:15:00,47.6,35.6,30.36,South,180,6.0,-999.0,63,0.00,,,0.00,Wunderground v.1.15,2013-04-16 02:15:00,
2013-04-15 22:20:00,47.6,35.6,30.36,South,180,6.0,-999.0,63,0.00,,,0.00,Wunderground v.1.15,2013-04-16 02:20:00,
2013-04-15 22:25:00,47.6,35.6,30.36,South,180,6.0,-999.0,63,0.00,,,0.00,Wunderground v.1.15,2013-04-16 02:25:00,
2013-04-15 22:30:00,47.6,35.6,30.36,South,180,6.0,-999.0,63,0.00,,,0.00,Wunderground v.1.15,2013-04-16 02:30:00,
2013-04-15 22:35:00,47.6,35.6,30.36,South,180,6.0,-999.0,63,0.00,,,0.00,Wunderground v.1.15,2013-04-16 02:35:00,
2013-04-15 22:40:00,47.6,35.6,30.36,South,180,6.0,-999.0,63,0.00,,,0.00,Wunderground v.1.15,2013-04-16 02:40:00,
2013-04-15 22:45:00,46.7,35.2,30.36,South,180,5.0,-999.0,64,0.00,,,0.00,Wunderground v.1.15,2013-04-16 02:45:00,
2013-04-15 22:50:00,46.7,35.2,30.36,South,180,5.0,-999.0,64,0.00,,,0.00,Wunderground v.1.15,2013-04-16 02:50:00,
2013-04-15 22:55:00,46.7,35.2,30.36,South,180,5.0,-999.0,64,0.00,,,0.00,Wunderground v.1.15,2013-04-16 02:55:00,
2013-04-15 23:00:00,46.7,35.2,30.36,South,180,5.0,-999.0,64,0.00,,,0.00,Wunderground v.1.15,2013-04-16 03:00:00,
2013-04-15 23:05:00,46.7,35.2,30.36,South,180,5.0,-999.0,64,0.00,,,0.00,Wunderground v.1.15,2013-04-16 03:05:00,
2013-04-15 23:10:00,46.7,35.2,30.36,South,180,5.0,-999.0,64,0.00,,,0.00,Wunderground v.1.15,2013-04-16 03:10:00,
2013-04-15 23:15:00,45.7,35.0,30.35,South,180,5.0,-999.0,66,0.00,,,0.00,Wunderground v.1.15,2013-04-16 03:15:00,
2013-04-15 23:20:00,45.7,35.0,30.35,South,180,5.0,-999.0,66,0.00,,,0.00,Wunderground v.1.15,2013-04-16 03:20:00,
2013-04-15 23:25:00,45.7,35.0,30.35,South,180,5.0,-999.0,66,0.00,,,0.00,Wunderground v.1.15,2013-04-16 03:25:00,
2013-04-15 23:30:00,45.7,35.0,30.35,South,180,5.0,-999.0,66,0.00,,,0.00,Wunderground v.1.15,2013-04-16 03:30:00,
2013-04-15 23:35:00,45.7,35.0,30.35,South,180,5.0,-999.0,66,0.00,,,0.00,Wunderground v.1.15,2013-04-16 03:35:00,
2013-04-15 23:40:00,45.7,35.0,30.35,South,180,5.0,-999.0,66,0.00,,,0.00,Wunderground v.1.15,2013-04-16 03:40:00,
2013-04-15 23:45:00,45.0,34.7,30.36,SSW,203,4.0,-999.0,67,0.00,,,0.00,Wunderground v.1.15,2013-04-16 03:45:00,
2013-04-15 23:50:00,45.0,34.7,30.36,SSW,203,4.0,-999.0,67,0.00,,,0.00,Wunderground v.1.15,2013-04-16 03:50:00,
2013-04-15 23:55:00,45.0,34.7,30.36,SSW,203,4.0,-999.0,67,0.00,,,0.00,Wunderground v.1.15,2013-04-16 03:55:00,